Location: Ch�tillon
(48.8024°N, 2.2935°E)
Time: 10:21:31
(UTC+00:00)

Aureole 2 - Visible Passes

Search period start: 17 August 2022 00:00
Search period end: 27 August 2022 00:00
Orbit: 364 x 860 km, 73.9° (Epoch: 16 August)

Date Brightness Start Highest point End Pass type
(mag) Time Alt. Az. Time Alt. Az. Time Alt. Az.
17 Aug 7.8 20:30:56 10° WSW 20:34:50 24° WNW 20:38:20 10° N visible
18 Aug 8.3 03:18:41 10° NE 03:19:22 10° NE 03:20:02 10° ENE visible
18 Aug 8.5 20:47:31 10° W 20:50:10 15° NW 20:52:38 10° NNW visible
19 Aug 7.5 03:32:26 10° N 03:34:44 18° NE 03:36:55 10° E visible
20 Aug 6.2 03:47:03 10° N 03:49:59 33° ENE 03:52:42 10° SE visible
20 Aug 7.3 19:37:03 10° WSW 19:41:17 31° WNW 19:45:00 10° N visible
21 Aug 4.3 04:01:55 10° NNW 04:05:04 75° ENE 04:07:59 10° SSE visible
21 Aug 8.1 19:53:13 10° W 19:56:30 19° NW 19:59:29 10° N visible
22 Aug 7.8 02:39:41 10° NNE 02:40:58 12° NE 02:42:12 10° ENE visible
22 Aug 4.3 04:17:03 10° NW 04:20:00 44° WSW 04:22:48 10° S visible
22 Aug 8.5 20:10:15 10° WNW 20:11:49 12° NW 20:13:18 10° NNW visible
23 Aug 6.9 02:53:47 10° N 02:56:14 21° NE 02:58:34 10° ESE visible
24 Aug 5.4 03:08:25 10° N 03:11:22 41° ENE 03:14:09 10° SE visible
25 Aug 3.8 03:23:19 10° NNW 03:26:21 82° WSW 03:29:15 10° SSE visible
26 Aug 7.3 02:00:41 10° NNE 02:02:21 14° NE 02:03:59 10° E visible
26 Aug 4.7 03:38:28 10° NW 03:41:13 33° WSW 03:43:30 13° S visible
